Theta_e
312 316 318 320 317 315 314 314 314 314 314 315 315 316 315 315 314 314 316 317 314 315 317 316 315 314 313 314 312 312 312 312 311 311 311 312 314 314 314 315 315 315 315 316 315 314 314 314 314 313 313 312 312 312 311 310 310 310 309 309 309 309 308 308 307 307 307 307 306 306 305 305 304 304 303 303 302 301 300 300 300 300 299 299 298 297
314 316 318 318 316 314 316 315 314 314 314 314 315 315 315 316 316 315 316 317 314 314 316 315 315 314 313 313 313 312 312 312 311 311 311 312 313 313 313 314 314 315 315 315 314 314 314 314 314 313 313 312 312 311 311 310 310 310 309 309 309 309 309 308 308 308 308 307 307 307 307 306 306 304 303 303 303 302 300 299 299 299 299 299 298 297
316 317 316 315 314 314 315 315 314 314 314 315 315 316 316 316 316 315 316 317 313 314 317 317 314 313 313 313 312 312 312 312 312 313 313 313 313 313 313 314 314 314 314 314 314 314 314 314 314 313 313 312 312 311 311 310 310 309 309 309 309 309 309 309 308 308 307 307 306 306 306 306 305 304 303 303 302 301 300 299 299 299 299 298 298 297
316 318 315 312 313 315 315 315 315 315 315 315 316 316 316 316 316 315 315 316 313 313 318 317 314 312 312 312 312 312 311 312 313 314 314 314 314 314 314 314 314 314 314 314 314 314 314 314 313 313 313 312 311 311 310 310 309 309 309 309 309 309 309 308 308 307 306 306 305 305 305 304 304 303 302 301 300 299 298 298 298 298 298 298 297 297
315 316 315 314 315 315 316 315 315 315 314 315 316 316 316 316 316 315 315 316 315 315 316 314 314 314 313 313 314 314 313 312 312 313 313 314 314 314 314 315 315 315 314 314 314 314 314 314 314 314 313 312 311 311 310 310 309 309 309 309 308 308 308 308 307 307 306 305 304 303 303 302 301 300 300 299 299 298 298 298 298 298 298 298 297 297
312 313 314 316 317 317 317 316 317 317 315 315 317 318 316 316 316 315 316 315 317 321 317 314 317 317 317 317 315 315 315 314 312 312 312 313 313 314 314 315 316 315 315 314 314 314 314 314 314 314 313 312 311 311 310 310 309 309 309 308 308 308 308 308 307 306 305 305 304 304 303 303 302 301 300 300 300 300 300 299 299 298 298 297 297 297
313 313 315 318 319 319 318 318 320 319 316 315 319 322 318 317 317 317 318 317 321 325 318 315 320 319 318 319 317 316 317 317 315 314 312 311 312 313 315 316 316 315 314 314 314 315 315 314 314 314 313 313 312 311 310 309 309 308 308 308 308 308 308 307 307 306 305 304 304 304 304 304 304 303 303 303 302 301 301 300 299 298 298 297 296 296
315 314 318 319 318 320 318 317 320 320 316 316 322 326 322 320 320 320 320 321 324 323 317 317 320 318 317 317 317 317 317 318 317 316 315 311 311 313 315 317 316 316 315 314 314 315 315 314 314 314 314 313 312 311 310 310 309 309 309 308 308 308 307 307 307 306 306 305 305 304 304 303 303 303 304 303 302 302 300 299 298 298 297 297 296 296
318 317 320 321 318 318 317 317 319 319 317 317 320 324 322 320 321 319 318 321 322 319 316 318 318 317 317 316 316 316 315 316 315 316 316 313 312 314 315 316 316 316 315 314 314 314 315 314 314 314 313 313 311 311 311 311 310 309 309 308 308 307 307 307 307 306 306 306 305 304 303 303 302 302 302 301 301 301 300 299 298 297 296 296 296 296
317 316 316 321 321 318 319 322 322 321 319 317 317 322 324 324 322 318 316 318 321 319 317 319 317 316 318 316 316 315 314 316 315 315 315 313 313 314 315 315 315 316 315 314 314 314 314 314 314 314 313 312 311 310 311 310 310 309 309 308 308 308 308 307 307 307 306 306 305 304 303 303 302 302 301 300 300 299 299 298 297 297 296 296 296 295
313 311 311 317 317 316 320 319 313 316 316 314 317 322 325 326 324 323 322 319 318 318 318 319 318 316 317 317 316 316 316 316 315 315 314 313 312 314 315 315 314 315 315 314 314 314 315 314 313 313 312 312 310 310 310 310 310 309 309 309 309 309 308 307 307 307 307 306 306 305 304 303 303 302 301 300 299 299 298 297 297 296 296 296 296 295
312 311 313 316 312 312 318 314 310 312 312 314 322 323 322 326 326 323 321 318 316 317 318 319 317 316 316 317 316 316 316 315 315 317 317 317 313 313 316 316 315 315 314 314 314 314 315 313 313 313 312 311 310 311 311 311 310 310 310 309 309 309 308 307 307 308 307 307 307 306 305 304 303 302 301 301 300 299 298 297 297 296 296 296 295 295
315 314 314 314 312 312 317 318 317 316 313 315 322 320 318 321 321 319 319 320 319 318 318 317 316 315 315 316 315 316 317 316 315 315 316 317 314 313 317 317 315 315 314 314 315 314 315 314 314 314 312 312 311 312 312 312 311 311 310 310 309 309 308 307 308 308 309 308 308 307 306 305 303 302 301 300 300 299 299 298 297 296 296 296 296 295
321 319 314 313 313 313 315 317 318 319 316 315 318 319 318 319 318 318 322 323 319 319 319 315 315 317 316 318 318 315 316 316 313 312 313 314 314 315 317 317 315 315 314 314 315 315 315 315 314 314 313 312 313 313 313 312 312 311 311 310 310 310 309 308 308 309 309 309 309 308 307 306 304 302 301 300 299 299 298 298 297 297 297 296 296 296
322 320 316 316 317 314 314 314 316 321 318 313 316 318 317 321 323 321 323 322 318 323 324 314 316 321 317 319 322 316 313 313 311 312 313 314 315 316 316 315 315 315 315 315 315 315 315 315 314 313 312 312 313 314 313 312 312 312 311 311 310 310 309 308 308 309 309 309 309 308 307 306 305 303 302 300 300 299 298 297 297 296 296 296 296 296
318 319 318 315 314 313 313 314 314 320 320 315 316 316 313 320 323 317 320 320 316 321 321 315 320 324 317 316 319 316 315 314 311 311 311 311 315 315 313 313 315 315 315 316 316 316 316 315 314 313 312 313 313 314 313 313 312 312 312 312 311 311 310 309 308 309 309 309 308 308 308 307 306 304 302 301 300 299 298 297 296 296 295 295 295 295
316 321 319 312 311 312 311 312 312 315 319 316 315 315 314 318 320 316 320 321 315 316 317 315 318 320 317 316 316 314 315 315 313 313 311 310 312 313 312 312 314 315 315 316 316 316 315 314 314 313 312 313 313 314 313 313 313 313 313 312 312 311 310 309 309 308 308 308 308 308 308 308 307 306 304 303 301 300 298 297 296 295 295 294 294 294
318 319 319 315 316 311 305 307 310 310 313 317 317 316 315 317 319 319 322 323 319 317 317 316 316 315 315 317 318 316 316 316 316 316 313 311 310 310 311 312 314 315 315 316 316 315 314 314 314 313 312 313 313 313 313 313 313 313 312 312 312 311 310 310 309 308 308 308 309 309 309 308 308 307 306 304 302 300 298 297 296 295 294 294 294 293
322 319 319 318 318 313 306 309 314 310 309 315 317 315 316 319 320 320 320 320 319 318 317 317 316 315 314 314 316 316 317 317 317 315 314 313 310 309 310 311 313 314 315 315 315 314 314 314 313 313 313 312 313 313 313 313 313 312 312 312 311 311 311 310 309 308 308 308 309 309 309 309 308 308 307 305 303 301 299 297 296 295 294 294 293 293
320 319 320 315 312 313 310 312 318 315 310 311 312 313 315 317 319 321 319 318 318 317 317 317 316 315 315 316 316 315 316 317 316 314 314 313 311 310 311 310 312 314 314 314 314 314 314 313 313 313 312 313 312 313 313 313 312 312 312 312 311 311 310 309 309 308 308 308 308 309 308 308 308 308 307 306 304 302 300 299 297 295 294 294 293 293
317 318 318 314 310 313 313 313 316 318 314 312 313 314 313 313 316 319 316 317 318 316 315 316 316 315 316 318 317 314 316 318 317 315 315 312 310 310 312 311 312 313 314 314 314 314 313 313 313 312 312 312 312 312 312 312 312 312 312 311 311 311 310 310 309 308 308 308 308 308 309 309 308 308 308 307 305 303 301 299 297 296 295 294 293 293
319 318 317 315 312 313 315 314 315 316 315 314 314 315 314 313 315 316 315 316 317 315 315 315 315 315 315 316 315 313 316 319 318 316 316 312 309 311 313 312 312 313 314 314 313 313 313 313 313 312 312 312 312 312 312 312 312 312 312 312 311 311 311 310 310 309 309 308 307 307 308 308 308 307 307 307 306 304 302 300 298 296 295 294 293 293
318 318 316 316 316 316 316 314 314 313 312 313 314 315 314 313 313 315 315 316 315 314 315 315 315 316 314 315 314 313 313 314 313 313 313 310 308 312 314 312 313 313 313 313 313 313 313 312 312 312 312 312 312 311 311 311 311 312 312 312 311 311 311 310 310 310 308 307 306 305 305 306 307 306 305 305 305 305 303 301 298 297 295 294 293 293
314 316 315 314 317 318 317 314 313 312 311 312 314 315 314 313 313 314 313 313 314 315 314 315 315 315 314 314 315 314 311 309 309 310 309 308 308 311 311 311 313 313 312 313 312 312 313 312 312 312 312 312 312 312 311 311 311 311 311 311 310 310 310 310 310 309 308 307 306 305 303 304 305 305 304 304 304 304 304 301 298 297 295 294 293 293
314 317 317 316 316 318 317 315 314 313 311 312 313 313 313 313 313 313 313 312 313 313 313 315 314 314 314 314 314 314 312 310 310 309 308 307 308 310 311 312 312 312 312 312 312 312 312 311 312 312 312 312 311 312 312 311 311 311 311 311 310 310 310 309 309 308 308 307 305 304 303 303 304 305 304 303 302 302 302 301 299 296 295 294 293 292
315 317 317 316 316 317 316 316 317 316 313 311 312 312 312 313 313 313 313 313 314 314 314 314 314 314 314 314 313 313 313 312 312 309 309 309 309 310 311 312 311 311 311 311 312 312 311 311 312 312 312 312 312 312 312 311 311 311 310 311 310 310 309 309 308 307 307 306 305 304 303 302 303 305 305 303 302 301 300 299 298 296 295 294 293 292
314 314 315 316 316 317 316 316 318 318 314 313 314 314 313 313 313 312 313 313 314 314 314 314 315 314 314 314 313 313 312 313 313 311 311 310 309 310 311 311 310 310 311 312 311 311 311 311 312 311 312 312 311 312 311 311 311 311 311 310 310 309 309 308 308 307 306 305 304 304 303 302 303 305 305 304 302 300 298 297 297 296 295 294 293 292
312 312 314 314 315 316 316 316 316 316 315 314 315 314 313 313 312 312 313 313 313 314 314 314 314 315 314 313 313 313 312 312 313 312 311 310 310 311 311 310 311 311 311 311 310 310 310 310 311 311 311 311 311 311 311 311 311 311 311 310 310 309 309 308 308 307 306 304 303 303 303 302 302 302 304 303 301 299 297 296 295 294 294 293 292 292
312 313 314 314 313 314 314 314 315 315 315 315 315 314 314 313 312 312 312 312 312 313 314 314 314 314 314 313 313 313 312 313 312 312 312 311 311 310 310 310 310 310 310 309 309 309 310 310 310 311 311 311 311 311 311 311 311 310 310 310 310 310 309 308 307 307 305 304 303 303 302 302 300 300 301 301 300 298 297 296 294 294 293 292 292 292
312 313 314 314 313 313 312 312 313 313 313 313 314 314 314 314 313 312 312 311 311 312 312 312 313 313 312 312 312 312 312 312 312 312 311 310 310 310 309 309 309 310 309 309 309 310 310 310 310 310 311 311 311 311 311 311 311 310 310 310 310 309 309 308 308 307 305 304 303 303 301 301 300 299 298 299 299 298 297 295 294 293 293 292 291 291
311 314 314 314 313 313 312 312 312 312 312 313 313 313 313 313 313 313 312 312 312 312 312 312 312 312 311 311 311 311 311 311 311 311 310 310 310 310 309 309 309 309 309 309 309 310 310 311 311 310 310 310 311 311 311 311 310 310 310 310 310 309 309 308 307 307 306 305 303 302 301 300 300 299 298 298 298 297 296 295 294 293 292 291 291 291
310 312 313 313 313 313 313 312 311 311 311 312 312 312 312 312 312 313 313 312 313 312 312 312 312 312 311 311 311 311 311 311 311 310 310 310 310 310 310 310 309 309 309 309 310 310 310 312 311 310 309 310 311 310 311 311 310 310 310 310 309 309 308 308 307 306 305 304 303 301 300 300 300 298 297 297 297 296 296 295 294 293 292 291 291 291
309 310 311 313 313 313 313 313 312 312 312 312 313 312 312 312 312 312 312 312 312 312 312 313 312 312 311 311 311 311 311 310 311 310 309 310 310 310 310 309 309 309 309 309 310 310 310 311 310 309 310 310 310 310 311 310 310 310 310 309 309 309 308 307 307 306 304 303 302 301 301 300 299 298 297 297 297 296 295 294 293 293 292 291 291 291
309 309 310 312 313 313 314 313 312 312 313 314 314 313 312 312 312 312 312 312 311 311 311 312 312 311 311 312 311 311 311 311 310 310 310 310 310 310 310 309 310 310 310 310 310 309 310 310 310 310 310 310 310 310 310 310 310 310 309 309 309 308 307 307 306 305 304 302 302 301 300 299 299 298 297 296 296 295 294 294 293 292 291 291 290 290
309 309 309 310 311 312 313 313 314 315 314 314 315 313 311 311 311 312 312 311 311 311 311 311 311 311 311 311 311 311 311 310 311 311 311 310 310 309 309 309 309 309 308 309 309 309 309 310 310 310 310 310 311 311 310 310 309 309 308 308 308 308 307 307 306 305 303 302 302 301 300 299 298 297 296 296 295 294 294 293 292 291 291 290 290 290
310 310 310 310 310 312 312 313 315 315 312 312 314 313 310 310 311 311 311 312 311 310 311 311 310 310 311 311 310 310 310 310 310 310 310 309 307 307 307 306 306 307 307 307 307 307 308 308 309 310 310 310 311 310 310 310 309 308 308 308 308 308 307 306 305 304 303 303 302 301 300 299 298 297 296 295 294 294 293 293 292 291 290 290 289 289
309 310 310 311 311 312 312 312 314 314 312 311 313 314 311 311 311 311 312 312 307 304 305 307 307 307 308 308 308 308 309 309 310 309 308 306 305 305 305 305 304 304 305 306 306 306 306 306 307 308 308 309 310 310 310 309 309 308 308 308 308 307 307 306 305 305 304 303 303 302 300 299 298 297 296 295 294 294 293 292 291 290 290 289 289 289
309 310 310 311 312 312 312 313 313 313 314 313 313 313 310 310 311 311 312 312 302 295 299 304 304 303 303 303 303 304 306 309 310 308 304 302 303 304 303 303 303 303 302 303 303 304 305 305 306 306 307 307 308 308 309 308 308 308 308 308 307 307 307 306 306 306 305 305 304 302 301 299 297 296 296 295 294 294 293 292 291 290 290 289 289 289
309 309 309 310 311 311 313 314 313 314 314 309 306 306 306 306 308 310 313 311 299 293 297 302 302 301 300 300 301 301 304 306 306 304 301 300 301 301 301 301 301 300 300 300 300 300 300 301 303 305 306 306 306 306 307 307 307 307 307 307 307 306 306 306 307 307 308 307 305 303 300 299 298 297 296 296 295 294 293 292 291 290 289 289 289 288
308 309 309 310 311 311 311 312 313 314 310 301 299 302 302 302 305 311 314 307 296 293 297 301 300 298 297 298 298 298 299 301 300 299 298 297 298 298 298 298 298 298 299 299 298 297 297 297 299 301 302 304 306 307 306 306 305 305 306 306 305 305 306 306 306 306 306 306 305 303 301 299 298 297 297 296 294 293 292 291 290 289 289 288 288 287
304 305 308 310 311 311 311 311 312 312 305 298 299 302 301 303 309 312 307 298 293 294 297 298 297 295 296 297 296 295 296 297 296 296 295 295 296 296 295 296 296 296 297 296 296 296 296 296 297 298 298 300 303 305 307 306 305 304 304 304 304 305 305 305 304 303 302 301 301 301 301 299 298 297 295 294 293 292 291 290 289 289 288 288 287 286
298 301 304 306 306 307 308 308 310 310 304 298 299 300 300 302 306 303 297 293 294 295 296 296 295 294 294 296 295 294 294 294 294 294 294 294 294 294 294 295 295 295 295 295 295 296 296 296 296 297 298 298 299 302 304 306 306 305 303 303 303 303 303 303 302 302 301 300 299 298 298 297 296 295 294 292 291 291 290 289 288 288 287 287 286 285
296 298 299 300 302 303 303 303 306 306 302 298 298 298 298 298 297 296 295 295 295 295 294 294 294 293 294 294 293 293 293 293 293 294 294 294 294 294 295 295 295 295 295 295 296 296 297 297 297 298 298 299 300 302 303 304 304 304 304 304 303 303 302 301 301 301 300 299 298 298 297 296 295 294 293 292 291 289 289 289 288 287 286 286 285 285
296 296 296 298 300 299 299 300 301 300 298 298 298 297 296 295 294 295 295 295 294 294 293 293 293 292 293 293 293 293 293 293 294 294 294 294 294 294 295 295 295 296 296 296 297 298 298 299 299 300 300 300 302 303 304 304 304 305 305 305 305 304 304 302 301 300 300 300 299 298 297 296 295 294 292 291 290 289 288 288 287 286 286 285 285 285
296 296 295 295 296 296 296 296 296 296 296 297 296 294 293 293 294 295 294 293 293 293 293 293 292 292 293 293 293 293 293 293 293 293 293 293 294 294 295 295 295 295 295 296 296 296 297 297 299 300 301 302 303 304 304 304 304 305 305 305 304 305 306 305 303 302 301 300 299 298 297 296 294 293 292 291 290 289 288 287 287 286 285 284 284 284
293 293 293 293 293 294 294 294 294 295 294 293 292 292 292 293 294 293 292 291 292 292 292 292 292 292 293 293 293 292 291 291 291 291 291 292 292 293 293 292 293 293 293 294 294 294 294 294 295 297 299 301 302 302 302 302 302 302 303 303 303 304 304 304 304 303 302 301 300 299 297 296 294 293 291 290 288 287 287 287 286 285 284 283 283 284
291 292 292 292 292 291 291 292 292 292 292 291 291 291 291 292 292 292 291 291 292 292 291 291 291 291 291 291 290 289 289 289 289 289 290 290 290 291 290 290 291 291 291 292 292 292 293 293 293 294 295 297 298 299 299 299 299 300 301 302 302 302 302 302 302 302 302 301 300 299 299 298 296 294 291 289 288 287 286 286 286 285 284 284 283 283
291 292 291 291 291 290 290 290 290 290 290 291 291 290 290 290 291 291 291 291 290 290 289 289 289 289 289 288 288 287 287 288 288 288 289 289 289 289 289 289 290 290 290 290 291 291 292 292 293 293 293 293 294 296 297 298 299 300 300 301 302 302 302 301 301 301 300 300 300 300 299 299 298 295 292 289 288 287 286 285 285 284 284 284 284 284
291 291 291 290 290 290 290 290 290 290 290 290 290 290 289 290 290 290 290 289 288 288 287 287 287 287 287 286 286 286 287 287 287 287 287 288 288 288 288 288 289 289 289 289 290 290 291 291 292 292 292 292 292 293 294 296 298 299 300 301 301 301 301 301 300 300 300 300 299 299 298 297 296 294 292 289 288 286 285 285 285 284 283 284 284 284
290 290 290 290 290 289 289 290 290 289 289 289 289 289 289 289 289 289 289 288 287 286 285 285 285 286 286 286 286 286 285 286 286 286 286 286 286 287 287 287 287 287 288 288 288 289 289 289 290 291 291 291 292 292 292 293 295 297 299 300 300 300 300 300 300 299 299 299 299 298 297 296 295 293 290 288 287 285 284 283 283 283 282 283 283 284
290 290 290 290 290 290 290 290 290 289 289 289 289 289 288 288 288 288 287 286 285 284 284 284 283 284 285 286 286 285 284 284 284 284 284 284 285 285 285 285 285 286 286 287 287 287 288 288 288 289 290 291 291 292 292 292 292 294 296 298 299 299 299 299 299 298 298 298 298 298 296 295 293 292 290 287 286 285 283 282 281 280 281 282 283 284
Wind_Speed
12 5 3 6 10 11 8 11 15 13 10 10 9 9 10 8 11 13 10 7 8 6 7 12 15 15 18 18 17 24 27 22 21 22 25 31 35 37 37 41 43 44 49 49 45 40 36 36 36 35 34 35 38 38 39 40 41 42 42 41 39 37 37 37 37 37 37 39 40 42 42 42 40 39 38 36 35 34 33 32 31 30 28 27 27 26
8 6 7 13 15 11 8 11 13 11 11 11 10 10 10 7 12 14 8 6 7 5 8 11 14 15 17 18 16 17 14 15 21 21 24 31 34 36 38 42 45 46 48 45 42 39 34 34 34 33 34 36 38 39 40 41 41 42 41 40 38 37 38 38 38 38 38 39 40 40 39 39 39 39 38 37 35 35 34 33 32 31 29 28 27 27
4 5 12 18 14 9 7 8 9 10 11 10 8 8 8 7 11 12 7 6 4 5 7 9 11 13 15 17 16 13 11 18 29 29 32 35 31 33 39 42 44 44 44 42 39 36 32 31 30 31 34 36 37 38 39 40 40 41 41 40 39 38 39 38 38 39 39 39 38 37 37 36 37 37 37 36 35 35 35 34 34 32 30 29 29 29
5 7 15 17 11 8 11 9 8 9 8 8 9 7 9 7 8 10 5 3 2 4 5 6 8 8 9 13 14 17 20 24 32 35 40 41 34 35 42 44 43 41 40 40 37 32 29 28 29 31 33 35 37 38 39 40 40 40 40 39 39 39 38 38 39 39 39 38 37 37 37 35 35 36 36 35 36 36 36 36 35 34 32 30 30 30
10 9 12 13 11 11 13 11 8 7 8 11 10 8 11 11 11 12 6 4 3 4 4 5 9 7 8 14 15 16 19 21 27 32 35 42 41 39 44 46 46 45 42 39 35 31 29 30 31 31 32 35 36 38 39 39 39 39 39 38 38 38 38 38 39 39 38 38 38 39 38 38 38 37 37 38 39 39 38 38 36 35 33 32 31 31
11 11 10 8 9 12 11 9 7 8 10 11 8 11 15 14 12 13 8 6 5 6 4 2 7 8 7 13 15 10 9 11 17 20 24 36 40 38 41 46 46 44 41 39 36 32 31 31 31 31 33 35 36 36 36 36 36 36 36 37 37 38 38 38 38 38 39 39 40 41 41 42 43 43 43 43 43 41 40 39 37 36 34 33 32 32
7 12 11 10 11 11 9 7 8 11 10 10 6 11 14 11 10 10 6 3 3 5 4 3 3 8 5 8 11 8 7 11 12 11 17 27 33 33 38 43 42 38 34 33 32 30 31 32 32 32 33 34 34 33 32 33 34 35 35 35 36 37 37 37 38 38 39 40 41 41 42 43 44 45 45 44 42 40 39 38 37 36 35 34 33 32
5 8 9 12 12 8 7 9 9 11 8 8 3 8 9 8 9 7 4 5 4 4 4 2 2 7 11 7 9 11 11 12 12 10 12 19 27 33 38 40 40 37 33 29 28 29 31 33 33 32 31 31 30 30 30 32 33 33 33 34 35 36 37 37 37 37 38 39 40 41 42 43 44 44 43 41 39 38 38 38 37 36 36 35 34 33
3 5 8 10 8 6 8 9 8 11 7 6 2 5 5 4 4 1 2 3 2 4 4 3 4 4 14 8 9 12 12 11 13 14 13 15 25 34 38 40 40 38 35 31 29 29 31 33 32 30 28 28 28 29 30 30 30 32 33 34 35 36 36 36 36 36 36 37 38 39 41 42 43 43 42 41 39 38 38 38 37 37 36 35 34 33
1 3 6 8 6 8 7 3 4 9 7 3 4 4 4 3 3 4 1 1 3 4 5 6 7 3 15 9 7 7 7 10 12 13 13 16 25 34 37 38 37 36 35 33 30 30 31 31 28 26 26 26 27 29 29 29 30 32 33 35 35 35 36 35 34 34 34 35 37 38 40 41 42 42 42 41 41 40 39 38 38 38 37 36 35 34
4 2 2 4 6 5 4 3 2 3 3 2 6 5 6 5 5 4 1 4 2 8 6 10 12 9 10 6 7 6 6 11 11 8 10 13 20 32 37 34 33 33 31 29 29 29 29 27 25 25 26 26 27 29 30 31 32 33 34 34 34 34 35 34 33 32 32 34 36 37 38 40 41 42 42 42 42 42 41 41 40 40 39 37 36 35
6 2 2 4 6 6 7 3 3 4 2 4 5 4 4 5 4 5 4 4 2 9 6 13 15 12 11 5 2 3 4 9 11 8 10 11 15 28 34 31 30 29 26 26 27 27 28 26 25 27 27 26 28 30 32 33 33 34 34 34 35 35 35 34 32 31 32 33 35 36 37 39 40 41 42 43 43 43 43 43 42 41 40 39 38 37
6 8 7 3 5 8 6 2 3 5 3 5 4 4 1 5 3 3 3 0 4 8 5 11 10 8 13 6 1 6 7 7 9 9 13 13 16 27 30 27 27 25 24 25 26 26 27 27 27 27 27 28 31 33 35 35 35 35 35 35 36 35 35 34 33 31 32 32 33 34 36 38 40 41 42 43 43 44 44 44 44 43 42 41 40 39
4 8 6 3 3 10 11 6 3 3 3 7 6 6 4 3 2 3 4 3 5 7 5 6 7 5 9 4 8 13 12 12 14 17 22 20 20 28 27 23 23 23 23 26 26 26 27 27 26 26 26 29 33 35 36 36 36 36 36 36 36 35 35 35 34 32 31 31 31 32 34 37 39 41 42 43 44 44 45 45 45 45 44 42 41 40
4 9 6 7 3 10 14 12 11 5 5 7 6 6 6 5 4 4 5 6 6 6 5 3 5 5 5 3 9 12 13 15 17 23 28 26 25 29 28 22 21 22 23 25 27 26 25 24 25 25 26 29 33 36 37 37 37 37 36 37 36 35 36 37 36 33 31 30 29 31 33 35 38 40 41 42 43 44 45 45 45 45 44 42 40 38
5 10 6 5 2 11 12 11 9 6 1 4 5 5 5 6 6 5 6 6 2 3 6 3 4 6 5 6 8 8 10 11 13 19 21 22 26 29 30 27 23 23 23 25 26 25 24 23 24 25 26 29 33 36 37 38 38 38 37 37 37 36 36 37 37 35 31 29 29 30 32 34 36 39 41 42 43 44 45 45 45 45 44 42 39 37
5 7 2 2 2 4 4 2 4 4 2 2 4 4 5 4 7 5 5 3 2 4 8 6 7 6 5 9 7 6 8 7 8 11 11 18 28 29 30 30 26 22 22 24 25 23 23 23 23 24 25 28 32 35 37 38 39 38 38 38 37 37 38 39 38 36 33 31 30 30 31 33 34 36 38 40 42 43 44 44 44 44 43 42 40 38
5 5 4 4 2 2 1 2 1 1 4 6 4 6 2 3 2 3 2 2 2 7 7 8 13 9 6 9 5 3 3 6 9 10 10 17 24 23 28 32 27 22 22 23 23 23 23 23 23 23 24 27 31 33 36 39 40 40 40 39 39 39 40 39 39 38 36 34 31 30 31 32 33 34 36 38 41 43 43 44 45 45 44 43 41 39
4 6 7 5 5 2 2 2 2 2 3 6 3 3 3 1 2 3 4 3 5 8 7 9 14 11 7 8 6 3 6 9 11 11 11 13 14 18 29 31 24 21 23 22 23 23 23 23 23 23 23 26 29 32 37 40 41 42 41 41 41 41 40 39 40 41 39 37 34 32 32 32 33 34 35 38 40 42 43 44 45 46 45 44 42 41
4 5 6 2 2 1 2 2 4 3 1 2 1 2 0 3 5 4 3 3 5 9 8 9 10 10 9 6 5 8 9 9 10 10 10 11 14 22 29 28 24 23 24 24 24 24 24 24 24 23 24 25 28 32 38 42 43 43 42 42 43 43 43 43 44 43 42 40 39 37 36 36 36 36 36 38 39 41 43 44 45 46 46 45 44 42
3 4 7 1 2 1 2 4 8 8 6 3 3 4 3 3 2 1 2 3 4 7 7 7 8 9 9 3 3 6 7 7 9 9 9 11 18 27 30 31 30 28 26 26 23 22 22 23 22 23 24 26 30 35 40 43 44 43 43 44 44 45 45 46 46 45 44 44 44 42 39 39 39 39 39 39 40 41 42 43 45 46 46 46 45 43
1 3 6 2 1 4 5 4 8 10 10 8 7 8 7 6 3 3 6 4 3 5 5 7 8 9 10 5 1 5 5 5 7 8 8 12 22 30 35 36 33 29 27 22 19 21 22 22 23 23 25 28 32 36 40 43 44 44 45 45 45 46 48 48 47 47 47 47 48 47 44 43 43 43 43 42 42 42 43 44 45 46 47 47 45 44
2 2 5 5 5 6 5 2 4 7 5 2 4 6 5 4 5 5 9 6 4 5 4 7 9 7 11 15 11 8 6 6 9 11 9 15 27 33 36 37 32 27 22 18 20 24 24 24 25 26 28 31 32 35 39 42 44 45 46 45 45 46 48 49 49 49 50 50 51 51 50 48 47 47 46 45 44 44 45 45 46 46 47 47 46 45
1 2 2 5 4 5 5 3 2 3 1 2 3 4 4 3 5 7 7 5 6 6 5 8 9 5 10 18 14 9 9 8 12 16 13 17 29 31 27 25 22 19 18 21 25 27 27 26 27 29 32 33 32 34 38 40 42 44 47 47 46 45 46 49 50 51 52 52 52 53 53 51 49 49 49 48 47 46 46 47 47 47 47 47 46 45
3 1 1 3 4 5 5 5 5 4 3 4 5 6 7 9 10 9 5 4 6 9 10 11 9 6 11 17 14 13 16 14 14 18 17 17 22 22 17 16 17 20 24 28 30 29 29 28 29 32 34 34 34 35 38 39 39 41 44 47 47 44 42 45 49 52 52 53 53 54 55 54 52 50 50 50 50 49 48 48 48 48 48 47 46 45
3 3 2 5 7 7 7 7 6 5 3 2 4 9 13 15 16 12 7 6 8 11 13 12 10 11 15 18 19 21 24 22 20 21 21 23 24 23 22 25 28 30 32 34 34 32 29 28 29 32 34 36 36 37 39 39 38 39 41 44 45 44 42 42 44 48 51 53 54 55 55 56 53 50 50 51 51 51 51 50 50 49 49 48 47 46
2 5 9 13 14 12 13 14 9 4 5 5 8 13 16 17 19 15 9 10 12 11 13 13 15 18 18 18 23 25 24 24 25 22 20 24 29 32 34 36 36 36 37 36 35 32 28 27 30 34 35 37 37 37 38 38 39 39 41 42 43 43 43 41 41 44 48 52 54 55 55 56 54 50 48 50 51 52 52 52 51 50 49 48 47 46
1 5 14 19 21 20 20 22 19 13 13 15 14 16 17 15 16 15 14 16 15 12 13 16 19 21 19 18 24 27 25 25 25 22 18 21 30 36 40 40 38 39 38 36 33 29 28 31 34 36 37 36 35 36 37 39 41 41 42 43 43 42 43 42 41 43 46 49 52 54 55 55 54 51 47 48 50 52 52 52 51 50 49 47 46 46
2 8 14 16 21 23 22 24 23 19 18 18 18 20 21 19 16 16 19 20 18 15 16 16 19 20 18 19 23 27 26 26 26 25 24 25 27 31 33 34 35 37 35 31 29 31 35 39 38 39 39 36 34 36 38 40 42 43 44 45 44 44 43 42 43 44 46 47 49 51 52 52 53 52 49 47 50 51 52 52 51 50 49 47 46 45
4 7 12 15 20 21 21 23 23 22 22 21 21 23 22 22 20 19 20 20 19 21 19 18 20 20 16 16 21 27 30 31 30 30 30 30 31 33 33 32 34 36 34 30 32 39 43 43 42 42 40 36 36 38 40 42 43 44 46 46 46 46 44 44 45 45 46 46 47 48 50 50 50 51 50 48 49 50 51 51 51 50 49 47 45 45
8 9 11 13 15 15 19 22 21 23 24 23 24 23 21 22 23 22 21 19 19 21 22 22 23 20 16 18 22 27 32 31 27 27 31 36 40 39 35 33 34 35 35 36 38 43 44 44 45 45 40 37 39 41 42 44 44 46 47 47 48 47 46 46 47 47 47 46 45 46 48 48 49 50 50 49 49 50 50 50 50 50 49 47 46 45
8 8 8 9 11 10 14 18 21 23 24 24 23 22 22 23 22 21 20 19 19 21 22 22 19 15 17 21 22 23 27 27 23 23 29 39 46 46 40 38 37 35 36 40 44 44 45 46 47 45 40 39 42 43 43 43 45 47 48 48 48 47 47 48 48 47 47 46 45 45 46 47 48 49 50 49 48 49 49 49 50 49 49 48 46 46
6 7 7 8 10 10 11 17 20 18 16 16 16 22 27 27 24 22 20 21 22 20 18 17 16 17 19 19 20 21 23 23 23 24 29 37 44 46 42 38 37 37 38 41 44 44 43 44 43 42 39 38 39 40 40 40 42 45 46 45 46 47 47 48 47 47 46 45 45 45 45 46 47 48 49 49 48 48 48 49 50 49 49 48 46 46
5 8 8 7 8 9 11 15 14 11 11 10 12 21 28 27 26 25 23 25 26 22 18 18 18 20 19 17 19 21 22 25 29 33 38 40 39 39 40 41 42 42 40 39 39 40 40 39 39 38 35 34 36 38 38 38 39 41 41 41 43 44 45 45 45 45 44 44 44 44 45 46 47 47 48 48 47 48 48 49 49 49 48 47 46 47
7 8 8 6 6 7 8 10 10 9 9 7 9 17 23 25 28 27 26 27 27 25 25 26 24 23 21 20 21 22 25 33 39 41 43 41 32 29 33 38 40 39 38 37 37 39 39 38 37 37 36 37 39 40 38 36 35 35 36 38 39 41 42 42 42 42 42 42 42 43 45 46 46 47 48 47 48 48 48 49 49 48 48 46 46 47
13 11 7 6 7 6 5 8 10 7 3 1 3 8 13 17 19 19 22 25 23 22 21 21 21 21 21 20 22 27 33 35 35 36 33 26 23 24 24 25 28 30 30 30 30 32 35 37 39 41 41 41 40 37 35 33 31 31 32 34 35 37 38 39 40 40 41 41 42 43 45 46 46 47 47 47 48 48 48 48 48 48 47 46 46 47
15 12 8 7 7 7 8 10 11 11 7 4 6 9 11 14 15 15 18 15 7 9 12 12 13 16 15 13 17 25 29 23 19 18 17 27 32 29 29 29 30 31 31 31 30 27 27 29 32 35 37 37 35 31 28 28 27 27 29 32 33 34 35 36 37 38 39 39 41 43 44 45 46 46 47 48 48 48 48 48 48 48 47 47 47 48
13 12 9 8 6 7 11 11 9 12 12 7 7 9 10 15 16 15 15 8 7 15 16 12 12 15 15 15 21 22 14 8 5 5 18 34 34 31 33 34 33 34 34 34 34 33 32 31 29 26 25 26 28 27 26 26 25 24 25 28 31 32 34 35 35 35 36 37 39 41 43 44 45 45 46 47 47 48 48 48 48 48 47 47 47 47
12 12 11 8 6 8 13 12 10 12 8 5 9 10 12 15 11 6 7 5 7 15 17 12 11 14 15 16 19 18 10 4 3 7 24 37 35 33 36 35 36 38 38 37 37 37 37 36 34 30 23 18 19 21 23 23 22 22 23 25 27 30 33 34 34 32 32 34 37 40 42 42 43 44 45 46 46 47 47 47 47 47 46 46 46 46
6 7 8 7 7 11 15 13 10 7 1 8 10 14 22 22 9 0 2 3 10 18 17 11 11 14 17 17 16 13 8 7 8 16 31 39 37 36 37 36 39 41 40 40 42 41 41 40 37 35 30 24 19 18 21 23 23 22 22 23 25 28 29 31 34 34 34 34 36 38 40 41 42 43 44 45 45 46 46 46 46 46 46 46 46 46
4 4 5 7 8 12 16 14 9 3 3 7 11 15 23 21 5 4 1 6 13 22 21 14 15 19 19 16 13 10 11 14 18 27 36 38 38 41 42 41 42 43 41 42 43 42 42 42 39 37 35 33 27 22 23 24 24 23 22 22 24 25 25 28 33 36 38 38 38 37 38 40 41 42 43 44 44 45 45 45 46 46 46 46 48 48
4 4 4 4 6 8 9 10 10 4 4 12 18 19 18 11 2 1 8 13 15 19 24 24 23 22 20 16 15 17 22 27 29 32 35 36 38 41 43 43 44 45 44 45 44 42 41 41 40 39 38 36 31 27 26 25 25 25 24 23 23 23 23 26 30 33 36 38 38 37 37 39 40 42 43 44 44 44 44 45 46 46 46 47 49 49
4 6 6 5 5 5 5 6 6 4 7 19 21 14 11 5 5 7 10 13 16 18 23 27 26 23 21 22 24 26 28 32 34 33 33 35 37 39 40 41 41 42 43 44 44 43 41 39 39 39 38 36 33 30 27 26 27 28 26 25 23 22 22 24 26 28 32 34 35 36 37 38 39 41 42 44 44 44 45 45 46 46 48 49 50 51
5 5 4 4 4 4 4 4 4 5 12 19 13 5 7 9 9 9 8 12 17 19 18 21 24 26 25 26 29 32 31 31 32 31 31 33 34 36 37 37 38 38 39 39 39 38 38 38 38 37 36 34 33 32 29 27 28 28 28 26 24 23 23 23 23 24 27 29 32 34 35 37 39 41 43 44 45 45 45 46 46 47 49 51 51 51
4 6 6 5 5 4 5 7 10 13 17 18 14 14 20 18 10 10 14 18 22 22 19 18 22 24 24 24 26 28 28 28 30 31 31 33 33 33 34 35 36 36 37 38 38 37 37 38 37 37 36 33 30 29 29 28 28 29 29 27 25 25 25 23 23 23 24 26 29 31 33 35 38 41 43 44 45 46 47 47 48 49 51 52 53 53
8 12 11 6 6 8 8 10 13 13 18 26 29 26 22 17 12 15 18 18 18 17 16 17 19 21 22 22 22 24 26 30 34 35 34 33 34 35 36 37 38 38 38 39 41 41 41 39 38 37 37 34 30 28 29 31 32 32 32 30 28 27 26 25 25 25 25 26 28 29 31 34 37 41 44 45 46 47 48 48 49 51 53 54 55 54
7 10 9 6 7 10 9 8 9 12 20 32 34 26 18 14 15 16 16 13 12 14 16 19 21 23 24 23 24 27 31 34 35 37 38 37 37 38 39 40 41 41 41 40 41 42 42 41 40 39 38 38 36 33 33 34 35 35 35 34 32 31 29 28 27 27 26 27 27 29 31 32 35 40 44 46 47 48 49 49 50 53 55 57 57 55
7 8 7 6 8 9 10 11 15 21 27 29 27 25 23 17 13 14 16 15 15 18 21 23 23 24 26 28 29 31 34 36 36 36 38 40 40 39 40 41 42 43 43 42 40 40 39 40 40 40 40 41 41 38 36 36 36 36 37 37 36 34 32 30 30 30 29 28 29 31 32 33 36 39 43 46 48 49 51 52 52 54 56 58 58 56
9 9 7 8 9 10 11 13 15 18 20 21 25 28 23 17 16 19 20 19 20 22 22 22 24 27 30 33 34 32 33 36 37 36 37 39 40 40 40 41 42 44 44 43 42 39 38 39 40 40 41 43 43 41 39 37 37 37 38 38 38 37 35 34 33 33 33 32 32 34 35 36 38 41 44 47 48 50 51 52 52 53 54 55 54 53
9 7 7 8 8 8 9 11 12 11 9 15 27 26 16 16 23 26 25 25 25 24 23 23 27 31 33 35 35 33 33 36 37 37 36 37 39 41 41 42 43 44 44 45 44 42 40 40 40 40 41 43 44 42 40 39 38 37 38 40 40 39 37 37 36 36 35 35 36 38 38 39 40 42 45 47 48 50 51 51 50 50 51 52 51 49
12 10 9 9 8 11 16 18 18 12 9 17 28 25 17 19 24 26 29 31 28 25 25 26 29 32 34 35 35 35 36 37 37 37 36 38 40 41 42 44 45 45 47 47 45 44 44 43 42 42 43 44 44 42 40 40 39 38 39 40 41 41 39 39 38 38 38 39 40 41 42 42 43 44 46 47 49 51 52 52 50 49 49 50 49 46
Wind_Direction
178 171 154 196 231 227 202 197 217 232 238 250 257 258 255 256 264 259 262 240 187 196 224 221 235 241 249 255 250 253 257 259 257 248 242 243 247 250 251 253 255 257 264 270 270 268 268 264 259 253 248 245 243 242 240 237 235 234 232 232 234 235 236 236 235 233 231 230 229 228 229 230 231 232 232 234 234 234 233 234 235 236 236 235 236 236
170 177 213 218 232 230 201 203 220 233 239 249 252 259 259 247 263 261 256 248 192 197 247 233 242 249 249 256 257 250 248 252 252 249 247 245 246 250 253 255 257 261 265 268 269 269 266 259 253 246 242 240 239 238 238 237 235 234 233 233 235 236 236 237 238 237 236 235 234 234 235 235 235 235 236 237 237 237 235 235 236 236 236 236 236 236
190 215 228 225 234 241 232 219 221 231 233 244 245 256 263 246 269 268 245 249 198 190 253 249 247 253 253 258 261 252 235 242 248 249 253 252 249 252 255 257 259 261 264 266 267 266 262 254 245 239 238 238 238 238 238 237 235 234 234 234 235 236 237 238 239 238 238 238 238 240 240 239 238 237 238 239 239 239 237 236 236 236 235 236 236 236
219 233 230 227 232 239 249 242 231 251 247 240 241 249 259 249 265 268 247 258 221 204 254 268 262 256 261 269 266 254 244 245 249 251 255 258 255 254 258 259 260 261 262 264 264 260 254 246 237 234 236 236 235 235 235 235 234 234 235 235 235 236 237 238 238 238 238 238 238 239 239 239 239 239 239 238 236 236 236 235 235 236 235 235 236 237
236 235 219 217 222 227 244 245 228 252 258 244 233 231 251 249 245 255 276 323 293 282 288 287 287 269 235 252 260 254 248 246 250 251 255 258 257 257 259 261 260 260 261 261 258 252 247 241 235 233 234 233 232 233 234 234 235 235 235 235 235 236 237 237 238 237 237 236 234 234 233 232 232 233 233 233 232 231 232 233 235 236 236 236 236 237
246 242 213 200 221 224 234 243 214 213 253 260 226 212 238 248 249 257 289 331 317 297 282 228 280 275 205 225 249 257 253 248 246 245 249 254 255 255 257 260 260 259 258 258 255 251 246 240 232 230 231 231 232 234 235 236 236 236 235 235 234 235 236 236 237 236 236 235 234 233 231 229 228 228 229 231 233 233 234 236 236 236 236 236 236 236
238 231 206 202 223 221 223 246 217 199 240 271 226 205 228 242 255 262 274 297 263 265 275 134 236 277 246 216 237 242 242 251 245 238 244 249 252 251 250 255 259 259 258 254 251 248 243 235 228 227 230 232 233 234 233 233 234 234 233 233 233 233 234 235 235 235 235 235 235 236 236 235 235 234 235 236 237 239 240 240 238 237 237 236 236 237
212 208 200 213 224 218 220 244 222 189 222 266 221 192 211 231 249 253 231 221 234 275 293 126 123 288 280 235 212 216 221 242 250 245 247 246 248 248 246 249 254 257 259 254 248 244 240 234 228 229 232 234 235 232 228 227 227 228 228 229 231 232 233 234 235 235 236 236 237 237 237 238 239 240 243 243 243 243 242 241 239 238 237 236 236 236
190 193 206 205 207 212 218 234 204 170 210 256 161 164 177 200 224 155 158 221 297 332 283 206 122 289 280 248 192 209 213 227 244 242 244 243 243 246 247 249 252 255 257 256 252 248 243 236 231 231 235 236 234 228 224 222 222 223 225 227 229 230 232 233 234 235 236 238 239 239 238 238 239 241 242 244 244 243 242 240 238 236 236 235 234 235
222 184 191 169 178 219 217 233 168 165 218 238 102 78 64 59 51 70 100 117 33 308 253 195 149 220 279 268 164 191 209 213 234 236 235 237 240 247 250 251 253 255 256 255 252 251 248 241 234 233 235 236 232 227 223 221 221 222 223 225 227 228 230 231 232 234 236 238 238 239 239 240 240 240 239 240 240 239 239 238 236 235 234 234 234 234
249 115 129 172 194 203 143 80 66 139 219 117 82 45 24 8 27 51 16 76 50 276 234 185 176 187 269 287 142 171 199 199 213 227 239 241 239 247 252 253 254 254 253 251 247 247 246 239 230 231 234 233 230 224 221 220 220 221 222 224 225 227 229 229 229 232 235 237 239 240 241 241 241 240 239 238 237 237 236 235 234 233 234 234 234 235
256 189 204 207 187 142 98 83 9 24 61 85 80 64 11 326 11 26 354 61 216 264 219 185 183 187 233 275 128 232 239 204 206 205 225 238 237 244 251 254 254 251 247 243 240 240 239 231 223 226 230 228 224 219 216 216 216 218 220 221 223 225 226 226 226 230 234 237 240 242 242 243 242 242 240 240 239 238 237 235 234 233 233 233 233 234
262 229 218 195 180 165 136 117 338 353 47 96 97 104 21 299 340 351 307 105 224 259 231 190 179 204 240 258 271 277 285 237 220 213 218 222 230 239 247 255 254 246 238 234 233 236 236 232 227 226 226 220 216 213 212 213 214 216 218 219 221 222 222 222 223 227 232 236 239 242 243 244 243 242 242 242 242 241 240 239 237 236 234 233 233 234
285 267 209 153 246 188 164 172 232 273 176 158 146 145 173 223 254 266 261 269 263 269 260 185 165 243 276 274 213 226 236 225 217 220 223 221 231 238 243 256 256 242 233 230 228 231 235 237 236 232 227 218 212 212 212 213 214 216 217 218 219 220 221 222 221 224 229 233 238 241 244 245 244 243 243 243 242 242 242 241 241 241 239 238 238 238
255 286 195 160 223 180 175 204 206 165 155 183 159 151 183 184 181 222 240 254 273 288 283 174 159 234 282 272 216 216 233 234 224 225 226 227 238 244 245 254 254 239 232 229 226 228 234 240 242 239 233 223 217 215 215 215 216 217 218 218 218 218 219 220 220 221 226 230 234 238 242 244 244 245 244 243 244 243 243 243 242 243 242 242 241 241
223 273 221 164 137 157 179 221 195 125 99 217 129 132 213 196 186 230 256 238 230 311 285 220 200 234 252 265 248 238 254 252 235 232 230 233 241 246 246 248 244 234 228 226 223 227 233 239 243 244 238 230 224 220 219 219 219 220 221 220 219 219 219 220 220 220 223 227 231 235 239 242 244 244 244 244 244 243 243 243 244 244 243 243 242 240
223 274 250 103 44 146 172 244 169 148 208 196 128 183 217 165 169 218 277 271 161 258 271 253 249 275 312 288 266 238 253 271 265 248 239 239 239 241 243 240 234 228 225 225 225 229 235 240 244 246 242 235 229 228 228 226 225 225 226 225 223 222 222 222 222 221 222 225 229 233 236 239 242 245 246 246 245 243 242 242 243 243 243 242 241 239
225 268 256 173 200 258 128 75 7 221 146 131 176 216 190 65 123 164 223 297 239 247 264 268 269 282 300 284 307 36 269 266 265 252 238 239 238 240 242 238 230 225 225 225 227 232 237 241 246 248 246 241 237 237 238 235 231 229 230 229 227 226 225 225 224 222 222 224 227 232 235 237 241 244 246 247 246 244 242 241 241 240 240 240 239 238
206 254 267 183 173 234 76 108 287 302 132 135 203 223 122 158 231 165 173 209 234 245 255 268 276 277 252 256 294 318 250 240 242 240 239 242 241 243 245 242 232 223 223 226 230 237 241 243 247 248 249 248 244 244 244 240 234 233 233 232 231 231 231 230 227 225 223 224 228 232 235 237 239 242 245 245 245 245 243 242 241 240 239 238 238 237
180 223 254 188 155 181 75 164 201 223 221 99 342 310 89 187 192 185 183 167 215 243 252 260 272 274 254 239 248 252 241 234 237 238 239 241 238 240 244 246 240 228 228 233 238 244 248 250 252 252 253 255 253 251 248 242 238 237 238 237 235 235 234 232 231 229 227 226 228 231 234 236 238 239 242 244 244 245 245 243 241 240 239 238 237 237
175 218 231 227 13 192 178 203 185 181 193 184 210 236 238 222 172 220 232 165 204 238 247 250 254 266 265 216 182 259 250 226 230 231 233 238 238 241 246 248 243 236 236 241 246 254 259 259 261 260 260 259 256 253 250 247 243 241 241 242 240 239 237 235 234 233 231 229 229 231 233 236 237 237 239 241 243 244 244 243 242 240 239 238 237 237
157 233 235 224 238 228 237 229 191 188 190 184 201 210 209 210 196 253 248 212 213 237 239 251 252 262 273 261 247 292 267 224 228 225 232 245 240 239 243 246 243 238 240 247 259 268 270 268 270 271 270 265 259 256 255 252 247 244 244 247 246 242 240 239 238 236 234 232 231 232 233 235 236 236 237 239 241 242 242 242 241 239 238 237 236 236
147 183 251 255 240 246 275 268 193 208 216 203 216 212 206 200 186 223 242 233 238 245 238 259 257 255 271 273 278 290 275 253 248 236 231 245 244 241 242 242 237 234 240 256 270 276 276 274 275 278 276 269 265 264 261 255 250 247 248 249 248 248 247 244 241 240 238 235 234 234 234 234 236 237 237 238 239 241 242 241 240 238 237 236 235 235
3 145 238 272 290 303 309 305 210 179 175 283 262 217 195 210 214 228 247 251 252 252 244 257 258 248 266 272 278 289 285 282 269 256 243 241 245 247 246 239 233 236 252 264 269 274 277 274 274 277 274 268 266 268 266 259 253 250 250 250 250 253 255 251 245 242 240 238 238 237 235 235 237 237 238 238 239 240 241 240 239 237 236 235 234 233
316 318 41 296 292 299 304 296 269 226 192 214 231 226 222 229 236 242 256 257 248 245 241 251 260 248 255 267 278 284 281 282 273 262 255 251 252 256 261 258 255 258 264 267 270 275 276 275 276 275 272 267 265 269 268 261 256 253 253 253 253 255 259 257 250 245 243 242 240 239 238 237 237 238 239 240 240 240 240 239 238 236 235 234 233 232
230 220 204 251 248 249 251 250 247 232 222 223 220 231 232 228 231 236 243 243 239 236 235 242 251 246 250 264 273 275 274 274 269 257 251 254 261 267 267 264 263 267 270 276 282 283 280 279 279 276 271 267 265 268 268 263 259 259 259 258 256 257 258 260 258 252 247 245 242 241 240 238 238 241 242 241 241 241 240 238 237 235 234 233 232 231
172 194 206 226 230 235 242 240 234 202 208 232 227 231 235 230 228 229 229 236 239 239 237 234 239 246 249 256 265 267 267 270 270 262 248 245 253 260 262 264 269 274 277 282 285 284 281 277 275 273 271 268 266 267 267 265 263 264 265 263 261 259 258 258 260 258 252 247 244 242 241 240 240 243 245 243 242 241 239 238 237 235 234 233 232 230
137 204 212 225 228 230 237 240 239 231 232 239 238 237 241 236 228 227 229 233 235 242 246 235 233 244 247 247 256 263 264 264 263 264 261 251 250 254 259 264 268 270 273 278 281 282 281 277 273 273 272 268 267 269 269 267 266 266 267 265 263 261 260 259 259 259 256 250 246 244 243 242 241 242 244 244 241 239 239 238 237 235 234 233 231 231
212 230 220 228 232 231 234 239 242 243 244 244 243 244 245 241 232 227 232 235 232 237 246 242 237 242 243 242 249 255 258 260 262 267 272 269 262 258 258 259 261 265 271 276 278 281 281 277 275 275 273 270 269 271 270 268 266 266 265 264 263 262 262 261 259 259 257 252 250 248 244 242 241 240 241 241 239 239 238 237 236 235 234 233 231 231
211 236 223 230 240 237 233 236 238 241 245 246 244 243 245 247 244 238 239 241 240 244 251 255 254 252 246 243 246 251 255 261 269 277 278 275 270 264 259 258 262 270 276 276 275 277 277 276 277 277 276 271 268 269 269 267 265 264 264 264 263 262 262 261 259 259 257 256 255 251 244 241 241 240 239 239 239 238 237 237 236 235 234 232 230 230
205 228 219 227 244 240 232 236 235 235 241 245 245 244 246 250 251 249 248 246 247 251 252 252 255 258 255 251 251 254 260 264 271 276 275 273 271 269 267 268 271 274 275 273 271 270 272 276 279 277 272 267 265 267 267 265 264 263 263 263 262 262 262 260 259 259 258 258 257 250 243 240 240 240 239 239 239 238 237 236 235 234 233 231 229 229
206 236 233 234 251 239 225 232 235 234 239 242 244 247 246 245 244 244 243 240 240 246 249 250 252 252 249 250 252 255 260 263 265 266 268 270 271 272 274 275 275 273 269 268 268 268 271 277 275 270 267 264 264 266 267 265 264 262 262 263 263 263 261 259 258 258 257 256 253 247 243 241 240 239 239 239 239 238 236 236 235 233 232 230 229 228
207 233 232 235 253 245 222 228 233 234 238 237 232 233 236 237 238 240 242 242 238 238 242 243 242 242 242 245 250 253 254 255 255 255 259 264 268 272 277 279 278 274 269 268 270 271 274 275 271 268 269 268 266 268 269 267 265 263 263 264 264 263 261 259 258 257 255 253 250 246 243 241 240 240 239 239 239 237 236 235 234 233 232 230 229 228
231 240 240 236 252 252 238 237 237 231 234 231 214 219 227 232 234 236 238 238 237 236 239 241 243 247 248 244 244 246 248 250 252 253 254 258 265 273 279 281 279 277 276 276 276 276 275 274 274 274 274 273 274 276 276 272 268 266 265 264 263 261 260 259 257 255 253 251 249 246 243 242 241 240 240 239 238 237 235 235 234 233 232 229 228 227
248 248 248 244 255 261 251 246 245 236 235 237 218 215 221 227 232 237 241 242 242 242 244 247 250 249 248 248 247 247 249 251 254 257 260 264 275 288 290 290 292 294 296 295 290 287 285 282 282 281 280 282 285 285 281 277 272 267 263 260 259 259 258 258 256 254 252 250 248 246 243 242 241 240 239 238 236 236 235 234 233 232 230 228 227 227
238 243 241 235 242 252 243 230 239 255 281 311 228 216 222 231 235 244 251 250 251 256 260 265 269 267 264 260 258 256 256 259 262 263 272 298 332 345 341 335 334 333 332 328 318 307 300 295 292 290 289 290 290 288 285 282 276 267 262 259 258 257 257 255 254 252 250 249 248 246 244 242 240 239 237 236 235 234 234 233 232 231 229 227 226 225
227 233 234 235 226 228 244 241 247 270 275 240 219 207 207 217 217 226 244 250 272 317 322 331 333 327 320 311 303 287 271 269 272 272 310 352 1 360 357 355 353 353 355 356 355 347 335 323 310 301 297 295 293 290 288 286 279 268 263 261 258 256 254 252 251 251 250 249 249 247 245 242 240 238 237 236 235 234 233 232 231 229 228 226 224 224
227 223 224 237 219 220 248 251 250 261 257 245 245 232 224 231 226 224 238 247 30 13 354 360 14 8 3 358 349 335 304 271 266 303 349 353 349 347 347 346 346 348 349 351 355 358 358 354 344 329 317 309 304 298 291 286 282 276 271 267 262 257 253 250 249 250 250 250 250 247 245 243 240 239 238 237 237 236 234 232 231 229 228 226 225 223
241 232 229 241 234 230 243 245 247 253 260 344 335 324 324 303 281 267 258 258 11 357 343 351 12 17 13 2 356 359 4 1 339 335 340 338 336 337 338 336 336 338 338 339 342 344 345 347 347 346 344 335 323 314 306 299 292 286 283 278 269 261 255 253 251 250 250 250 249 247 244 242 241 240 241 240 239 237 235 233 232 230 227 226 225 223
260 241 237 244 242 242 247 250 253 247 337 12 344 336 333 320 305 217 259 300 349 334 330 354 16 12 5 355 355 7 14 359 331 318 324 326 324 325 326 325 327 328 328 329 331 333 334 335 335 337 338 337 335 331 325 316 306 295 289 284 275 267 264 264 259 252 248 247 246 246 245 243 242 242 242 241 239 237 235 234 232 229 226 224 223 220
314 273 254 253 253 254 253 256 264 239 84 11 348 350 341 327 307 141 273 308 316 314 322 350 4 357 350 347 353 349 324 317 312 308 313 317 316 317 319 320 320 321 321 323 325 328 330 330 330 329 328 330 330 330 327 322 316 307 295 283 278 276 276 273 264 254 248 245 243 244 244 244 243 242 241 240 237 235 234 233 231 229 225 223 220 216
327 301 283 277 280 277 269 276 281 257 67 17 355 358 4 351 299 313 317 302 296 310 330 341 341 339 334 328 328 320 311 313 313 310 312 315 314 316 318 319 321 322 323 325 326 328 329 329 328 324 323 326 325 320 319 319 318 315 303 289 286 287 281 274 267 260 253 248 245 245 245 243 242 240 239 237 235 234 233 231 230 228 225 222 218 214
297 293 297 289 288 294 288 289 274 250 16 7 353 357 28 26 291 299 309 305 310 323 329 326 323 325 325 321 320 317 314 315 315 313 314 314 314 316 318 319 321 321 323 326 327 329 331 329 326 323 323 325 321 314 310 310 312 311 305 300 300 295 283 276 272 267 260 254 251 250 247 245 244 241 239 237 234 233 231 230 228 226 224 221 217 212
258 266 281 284 311 318 282 287 308 302 331 350 354 340 338 327 305 301 305 310 317 317 312 310 314 320 323 322 319 318 317 316 317 319 319 318 319 320 320 322 324 324 326 328 328 331 333 331 327 324 321 321 319 311 304 305 307 305 300 301 303 297 290 286 280 271 265 260 257 254 251 249 247 244 240 237 234 231 229 229 227 224 221 219 215 212
283 300 296 281 287 288 258 278 303 304 311 326 328 315 319 324 317 304 305 306 306 305 304 307 312 318 324 324 321 320 320 320 322 324 324 323 324 324 324 326 327 327 328 328 327 330 332 330 328 324 321 321 318 309 304 306 309 305 300 299 296 290 289 289 284 277 270 264 260 258 256 253 250 246 242 238 235 231 228 227 225 222 218 215 212 211
300 302 300 293 290 290 275 275 290 304 315 314 310 309 315 314 298 297 308 312 310 311 318 321 321 325 328 327 326 323 320 320 321 321 321 322 322 321 321 320 320 320 321 320 321 322 323 324 323 322 321 320 317 312 309 309 308 305 302 299 293 286 284 282 281 279 272 266 262 259 257 256 252 247 242 237 234 231 230 228 225 221 216 212 209 209
284 283 283 293 301 297 291 288 297 310 307 301 299 304 309 301 296 308 324 333 330 327 330 330 329 327 324 323 323 320 317 318 318 317 318 318 317 316 316 316 316 316 315 315 317 318 318 319 318 316 315 314 312 311 310 307 304 300 297 293 289 286 283 279 277 276 273 270 267 263 261 261 257 250 243 237 233 229 228 227 225 222 217 211 208 207
283 293 288 282 284 281 285 296 298 292 287 283 287 301 310 313 316 320 322 324 324 324 326 327 326 323 320 319 319 317 315 315 315 314 315 315 314 314 314 314 314 313 313 314 314 314 314 314 312 311 310 308 306 307 307 304 301 298 294 289 284 282 280 278 278 277 274 271 268 265 263 261 257 251 244 238 233 229 226 225 223 220 218 214 210 207
275 289 280 272 280 283 284 289 290 287 283 283 292 302 311 319 322 317 314 315 320 325 327 325 321 319 317 316 316 316 314 313 313 314 314 313 312 313 312 312 312 312 311 312 312 312 311 308 306 305 304 302 302 302 302 299 297 296 294 288 282 279 277 276 277 275 273 269 265 262 259 256 253 248 242 237 233 229 227 225 223 220 218 216 213 212
262 270 269 271 279 279 274 274 278 283 287 292 298 306 317 319 311 309 311 316 322 326 327 323 318 317 316 316 316 316 314 312 313 314 313 312 312 311 312 312 311 310 309 309 309 309 307 305 304 302 300 298 297 297 296 294 292 293 292 288 282 278 275 275 274 271 268 265 262 258 254 250 247 243 238 234 231 226 222 221 220 219 217 214 213 214
246 248 253 259 262 263 265 270 276 280 282 286 293 301 311 311 306 306 310 316 322 324 322 319 317 316 316 316 316 315 314 313 313 313 311 310 310 310 310 310 309 308 307 307 307 306 306 304 303 300 297 296 295 294 292 289 287 286 287 286 283 278 275 274 272 270 267 265 263 259 253 247 243 238 233 230 228 224 219 214 212 212 212 213 212 212